Location: Avesnes-lès-Aubert
(50.1980°N, 3.3788°E)
Time: 23:57:23
(UTC+00:00)

Daily predictions for brighter satellites

Satellite Brightness Start Highest point End
(mag) Time Altitude Azimuth Time Altitude Azimuth Time Altitude Azimuth
NOSS 3-3 (C) 4.1 16:38:27 10° SSW 16:43:26 48° ESE 16:49:21 10° NE
Landsat 7 4.1 16:40:52 10° SE 16:45:15 43° ENE 16:49:40 10° N
Cosmos 2173 Rocket 4.3 16:41:04 10° SSE 16:46:57 45° E 16:52:48 10° NNE
Cosmos 1733 Rocket 3.0 16:44:47 10° S 16:49:03 63° E 16:53:19 10° NNE
Cosmos 2082 Rocket 4.1 16:50:01 10° N 16:51:39 11° NNE 16:53:18 10° NE
Cosmos 2227 Rocket 3.7 16:47:34 10° WSW 16:52:36 32° NW 16:57:39 10° NNE
USA 281 4.3 16:47:39 10° E 16:52:41 24° NE 16:57:44 10° NNW
Thor Agena Rocket 3.8 16:48:34 10° SSE 16:53:49 81° WSW 16:59:08 10° NNW
CZ-4C R/B 2.8 16:50:28 10° S 16:53:59 26° ESE 16:58:12 10° ENE
Cosmos 1153 Rocket 4.5 16:48:12 10° S 16:54:21 79° E 17:00:29 10° NNE
Cosmos 1452 Rocket 3.8 16:49:21 10° NNW 16:54:36 75° WSW 16:59:49 10° SSE
Cosmos 1992 Rocket 4.4 16:50:03 10° NNW 16:54:59 41° ENE 16:59:52 10° SE
Cosmos 2242 Rocket 3.9 16:52:31 10° NNW 16:57:00 74° W 17:01:29 10° S
Cosmos 1441 Rocket 4.3 16:55:40 10° NNE 16:58:00 17° ENE 17:00:19 10° ESE
Cosmos 468 4.5 16:54:21 10° SSW 16:59:30 70° ESE 17:04:43 10° NNE
Meteor 1-11 4.3 16:54:26 10° N 17:00:14 67° ENE 17:05:53 10° SSE
AQUARIUS 4.3 16:56:03 10° SE 17:00:17 48° ENE 17:04:33 10° N
Cosmos 1844 4.0 16:55:39 10° S 17:01:11 49° ESE 17:06:43 10° NE
Cosmos 1048 Rocket 4.2 16:56:56 10° SSW 17:02:01 72° WNW 17:07:09 10° NNE
Cosmos 1340 Rocket 2.9 17:07:59 10° S 17:11:43 49° E 17:15:28 10° NNE
Cosmos 44 4.4 17:08:38 10° WSW 17:12:55 38° NW 17:17:29 10° NNE
Cosmos 1674 Rocket 3.5 17:08:51 10° N 17:13:16 78° E 17:17:37 10° SSE
PSLV R/B 4.3 17:13:24 10° ESE 17:16:52 27° ENE 17:20:19 10° N
Cosmos 2219 4.2 17:11:40 10° SW 17:17:01 44° NW 17:22:25 10° NNE
Cosmos 2082 4.5 17:12:11 10° SW 17:17:39 52° NW 17:23:10 10° NNE
Cosmos 2016 Rocket 4.3 17:11:54 10° SSE 17:17:48 47° E 17:23:48 10° NNE
CZ-2D R/B 2.8 17:14:55 10° SSE 17:18:05 84° WSW 17:21:17 10° NNW
Resurs 1-3 4.3 17:20:01 10° SE 17:23:47 30° ENE 17:27:35 10° N
Cosmos 614 Rocket 3.9 17:18:36 10° SSW 17:23:48 81° ESE 17:29:01 10° NNE
Helios 1A Rocket 3.6 17:23:44 18° ENE 17:25:07 22° E 17:27:50 10° SSE
IRS-P3 4.1 17:21:06 10° SSE 17:26:26 84° ENE 17:31:48 10° NNW
SJ-6F 4.2 17:26:17 10° SSE 17:30:13 87° ENE 17:34:10 10° NNW
BREEZE M DEB (TANK) 4.4 17:11:20 10° WSW 17:33:27 79° SSE 17:37:25 19° E
MOS 1 Rocket 3.0 17:29:14 10° SSE 17:33:27 67° ENE 17:37:45 10° N
Cosmos 1025 Rocket 3.0 17:29:52 10° N 17:34:15 89° WSW 17:38:34 10° S
Cosmos 2061 Rocket 4.3 17:30:07 10° SSE 17:36:02 43° E 17:41:54 10° NNE
Cosmos 921 Rocket 3.6 17:32:57 10° SSE 17:36:50 35° ESE 17:39:40 17° NE
YAOGAN 1 2.8 17:32:51 10° SE 17:36:51 42° ENE 17:40:54 10° N
Cosmos 2263 Rocket 4.0 17:34:43 10° W 17:39:22 26° NW 17:44:02 10° NNE
Cosmos 2100 Rocket 4.2 17:34:29 10° SSW 17:40:43 77° W 17:46:55 10° N
IRAS Rocket 4.2 17:35:56 10° SSE 17:41:28 66° ENE 17:46:59 10° NNW
SPOT 1/Viking Rocket 3.5 17:37:34 10° SSE 17:42:40 67° ENE 17:47:49 10° N
CZ-4 R/B 4.2 17:40:48 10° SSE 17:44:46 78° ENE 17:48:46 10° N
ATLAS CENTAUR R/B 2.2 17:42:07 10° S 17:44:48 23° ESE 17:44:48 23° ESE
SL-19 R/B 4.1 17:40:06 10° SE 17:45:18 59° ENE 17:50:25 10° N
ARIANE 5 R/B 3.5 17:41:04 10° S 17:45:52 49° W 17:50:44 10° NNW
Cosmos 1844 Rocket 2.8 17:40:31 10° SW 17:46:05 77° WNW 17:51:42 10° NNE
ARIANE 6 FM1 Upper Stage 2.4 17:46:10 10° SW 17:50:10 78° SE 17:52:12 28° NE
Cosmos 1607 4.4 17:44:12 10° WSW 17:50:15 59° NW 17:56:00 12° NE
Cosmos 1833 Rocket 2.9 17:48:03 10° NNW 17:53:34 50° NE 17:57:24 19° ESE
Cosmos 1140 Rocket 4.3 17:52:43 10° SSE 17:56:57 27° ESE 17:56:57 27° ESE
Cosmos 1782 Rocket 3.7 17:52:46 10° S 17:57:04 52° E 18:01:24 10° NNE
CZ-2D R/B 3.4 17:53:20 10° SSE 17:57:23 88° W 18:01:32 10° NNW
Geosat 4.1 17:53:36 10° SSE 17:58:36 77° WSW 18:03:38 10° NNW
SKYMED 2 3.4 17:56:55 10° NNE 18:01:17 75° ESE 18:05:37 10° S
Cosmos 1867 3.5 17:58:18 10° SW 18:03:45 88° SE 18:07:26 22° NE
NOSS 3-4 (A) 4.0 17:58:34 10° NW 18:05:16 73° SW 18:13:10 10° SSE
NOSS 3-4 (C) 4.0 17:58:38 10° NW 18:05:21 74° SW 18:13:14 10° SSE
COSMO-SKYMED 1 2.4 18:02:06 13° NNE 18:05:43 60° ESE 18:09:46 10° S
Cosmos 1606 4.0 18:03:57 10° SW 18:06:21 27° WNW 18:08:47 10° NNW
SL-16 R/B 4.3 18:03:38 10° N 18:08:54 29° NW 18:14:09 10° WSW
Cosmos 2344 4.4 18:03:25 10° NW 18:10:10 36° NNE 18:14:01 25° ENE
ATLAS 5 CENTAUR R/B 2.1 18:06:48 10° NNW 18:10:39 39° NE 18:11:09 38° NE
NOSS 3-3 (A) 4.5 18:07:08 10° WSW 18:12:27 52° NW 18:17:20 17° NE
Cosmos 1725 Rocket 4.2 18:06:14 10° SSW 18:12:27 73° W 18:18:47 10° N
Cosmos 1908 Rocket 4.1 18:08:36 10° SSW 18:12:57 60° WNW 18:17:21 10° N
Cosmos 540 Rocket 4.3 18:08:43 10° N 18:12:58 30° NE 18:12:58 30° NE
Tiangong 0.1 18:13:11 10° SW 18:15:21 17° S 18:15:32 17° S
Cosmos 1975 Rocket 2.8 18:12:21 10° N 18:16:41 71° E 18:20:47 11° SSE
SL-4 R/B 1.6 18:14:10 10° WNW 18:17:39 75° SSW 18:17:58 68° SSE
Cosmos 1300 Rocket 3.5 18:13:59 10° S 18:18:24 89° WNW 18:22:50 10° N
YAOGAN 3 4.4 18:19:45 41° SE 18:21:05 67° ENE 18:25:17 10° N
Cosmos 2233 Rocket 4.0 18:17:56 10° S 18:24:13 84° W 18:30:34 10° N
Spot 4 Rocket 4.5 18:20:35 10° S 18:25:38 61° WSW 18:30:42 10° NNW
Resurs 01 Rocket 1.8 18:28:32 52° NE 18:28:32 52° NE 18:32:20 10° N
ATLAS 2AS CENTAUR R/B 4.0 18:23:31 10° NW 18:29:11 26° N 18:31:46 21° NE
BREEZE-M DEB (TANK) 3.1 18:26:59 10° SW 18:29:29 56° SSE 18:29:29 56° SSE
USA 281 3.1 18:31:57 23° SE 18:36:21 79° ENE 18:42:58 10° NNW
Cosmos 2082 Rocket 3.2 18:32:43 10° NNW 18:36:54 30° NNE 18:36:54 30° NNE
DNEPR-1 R/B 3.7 18:35:37 10° NW 18:40:00 79° SW 18:40:51 59° SSE
CARTOSAT-1 3.3 18:40:02 90° SE 18:40:02 90° SE 18:44:18 10° NNW
Cosmos 1023 Rocket 4.4 18:34:57 10° S 18:39:58 63° ESE 18:39:58 63° ESE
CZ-4C R/B 2.3 18:37:15 10° WSW 18:41:39 58° NW 18:43:42 35° NNE
NOAA 6 4.4 18:39:52 10° S 18:44:59 65° WSW 18:50:08 10° NNW
Cosmos 1269 Rocket 3.8 18:42:51 10° SSW 18:48:05 78° ESE 18:48:28 73° ENE
Helios 1A Rocket 4.4 18:57:27 27° NW 18:57:51 28° WNW 19:00:47 10° SW
BREEZE-M DEB (TANK) 4.4 19:06:36 10° SW 19:08:20 34° SSW 19:08:20 34° SSW
ATLAS CENTAUR R/B 3.8 19:16:35 10° WSW 19:17:25 16° WSW 19:17:25 16° WSW
Cosmos 1763 Rocket 4.3 19:25:04 10° NNW 19:28:55 47° NW 19:28:55 47° NW
Cosmos 1833 Rocket 4.2 19:32:17 10° NW 19:37:16 33° WSW 19:39:09 26° SW
Nadezhda 4 Rocket 4.2 19:31:52 10° NNW 19:37:45 68° WNW 19:37:45 68° WNW
SL-12 R/B(2) 4.2 19:37:19 10° SSW 19:44:56 77° SSE 19:44:56 77° SSE
BREEZE-M DEB (TANK) 4.4 19:20:49 10° WSW 19:49:45 82° S 19:50:26 77° ESE
ATLAS 5 CENTAUR R/B 3.9 19:49:04 10° NW 19:50:42 22° WNW 19:50:42 22° WNW
Resurs 01 Rocket 4.3 20:05:57 17° WNW 20:05:57 17° WNW 20:07:51 10° NW
ATLAS 2AS CENTAUR R/B 4.1 20:15:25 10° NW 20:19:10 30° NNW 20:19:10 30° NNW
Cosmos 2082 Rocket 4.2 20:16:36 10° NW 20:18:44 23° NW 20:18:44 23° NW
Cosmos 2344 4.0 20:17:55 10° NW 20:24:02 62° NNW 20:24:02 62° NNW
CZ-4C R/B 4.4 20:26:53 10° WNW 20:28:40 18° NW 20:28:40 18° NW
